Location: Newark
(54.0500°N, 12.8333°E)
Time: 22:50:02
(UTC+00:00)

Transit 4A - Pass Details

Date: 31 January 2020
Orbit: 872 x 973 km, 66.8° (Epoch: 19 February)

Event Time Altitude Azimuth Distance (km) Brightness Sun altitude
Rises 05:15:08 0° 221° (SW) 3,527 10.6 -15.1°
Reaches altitude 10° 05:17:39 10° 222° (SW) 2,575 9.9 -14.7°
Maximum altitude 05:23:37 85° 311° (NW) 898 7.8 -13.9°
Drops below altitude 10° 05:29:31 10° 41° (NE) 2,540 10.6 -13.0°
Sets 05:31:59 0° 42° (NE) 3,476 11.3 -12.7°
